Погода в Плайя-де-лас-Америкас

Испания     28°03′33″N   16°43′53″W
темп.,
°C
ветер,
м/с
пор.,
м/с
влажн.,
%
обл.,
%
осадки,
мм/ч
давл.,
гПа
погр.,
м
4 декабря, сб
сб400:00+19юв22626 0.0 1022727
03:00+19всв67580 0.0 1021447
06:00+19св45580 0.0 1022707
09:00+19св57560 0.0 1024702
12:00+20всв68500 0.0 1023946
15:00+21в98460 0.0 1021682
18:00+20в98480 0.0 1022405
21:00+20всв66510 0.0 1024611
5 декабря, вс
вс500:00+19св58500 0.0 1024545
03:00+19св46540 0.0 1023542
06:00+19св35540 0.0 1023588
09:00+19св45570 0.0 1025645
12:00+20св45560 0.0 1025868
15:00+21всв55590 0.0 1022979
18:00+20св24635 0.0 1023454
21:00+20всв55616 0.0 1024589
6 декабря, пн
пн600:00+19св2462100 0.0 1024631
03:00+19св566490 0.0 1023665
06:00+19всв466523 0.0 1022742
09:00+19всв556347 0.0 1024785
12:00+20всв566090 0.0 10241061
15:00+20св356210 0.0 1021837
18:00+20св236790 0.0 1021960
21:00+20всв566391 0.0 1021548
7 декабря, вт
вт700:00+19св456785 0.0 1022654
03:00+19зсз336828 0.0 1022769
06:00+18в326997 0.0 1022520
09:00+19в2264100 0.0 1023421
12:00+20всв2359100 0.0 1023555
15:00+19вюв22653 0.0 1021541
18:00+20вюв436810 0.0 1022563
21:00+20ссв22665 0.0 1023613
8 декабря, ср
ср800:00+19св22665 0.0 1023688
03:00+19в12678 0.0 1022607
06:00+19в21670 0.0 1022562
09:00+20в43624 0.0 1024584
12:00+20в136112 0.0 1025727
15:00+20вюв436427 0.0 1023837
18:00+20вюв446616 0.0 1023663
21:00+20вюв22630 0.0 1025626